[[{"header":{"parameterUnit":"m.s-1","parameterCategory":1,"la1":30.2991,"la2":30.254,"lo1":-89.0895,"lo2":-89.0444,"dy":0.0017,"dx":0.0017,"nx":28,"ny":28,"refTime":"2025-05-19T21:00:00:Z","depth":0,"parameterNumber":2,"parameterNumberName":"U-component_of_WINDS"},"data":[0,0,0,0,0,0,0,0,0,0,0,0,0,0,0,0,0,0,0,0,0,0,0,0,0,0,0,0,0,0,0,0,0,0,0,0,0,0,0,0,0,0,0,0,0,0,0,0,0,0,0,0,0,0,0,0,0,0,-1.8358,-1.8357,0,-1.8328,-1.8328,-1.8327,-1.829,-1.829,-1.8289,-1.8288,-1.8259,-1.8259,-1.8259,0,0,0,0,0,0,0,0,0,0,0,0,0,-1.8384,-1.8384,-1.8358,-1.8357,-1.8357,-1.8328,-1.8328,-1.8327,-1.829,-1.8289,-1.8289,-1.8288,-1.8259,-1.8259,-1.8259,0,0,0,0,0,0,0,0,0,0,0,0,0,-1.8366,-1.8384,-1.8358,-1.8335,-1.8333,-1.8328,-1.8328,-1.8327,-1.829,-1.8289,-1.8289,-1.8288,-1.826,-1.8259,-1.8259,-1.8275,0,0,-1.8258,-1.8258,0,0,0,0,0,0,0,0,-1.8367,-1.8365,-1.8339,-1.8337,-1.8334,-1.8312,-1.8326,-1.831,-1.8291,-1.8306,-1.8288,-1.8287,-1.8278,-1.8276,-1.8272,-1.8274,-1.8272,-1.8258,-1.8258,-1.8258,-1.8257,0,0,0,0,0,0,0,-1.8368,-1.8366,-1.8346,-1.8338,-1.8336,-1.8327,-1.8323,-1.8323,-1.8298,-1.8305,-1.8302,-1.8299,-1.8276,-1.8273,-1.8271,-1.8272,-1.8258,-1.8258,-1.8257,-1.8257,-1.8286,-1.8287,0,0,0,0,0,0,-1.8373,-1.8367,-1.8347,-1.8345,-1.8348,-1.8327,-1.8323,-1.832,-1.8297,-1.8293,-1.83,-1.8298,-1.8274,-1.8272,-1.827,-1.8288,-1.8258,-1.8257,-1.8257,-1.8285,-1.8286,-1.8287,0,0,0,0,0,0,-1.8373,-1.8371,-1.8348,-1.8355,-1.8352,-1.8328,-1.8324,-1.832,-1.8316,-1.8294,-1.8289,-1.8301,-1.8273,-1.8271,-1.8274,-1.8286,-1.8257,-1.8257,-1.8284,-1.8286,-1.8287,-1.8323,0,0,0,0,0,0,-1.8374,-1.8372,-1.8377,-1.8356,-1.8352,-1.8352,-1.8325,-1.832,-1.8316,-1.8312,-1.8293,-1.8289,-1.8272,-1.8275,-1.8274,-1.8285,-1.8257,-1.8283,-1.8285,-1.8286,-1.8321,-1.8326,-1.833,0,0,0,0,0,-1.8375,-1.8389,-1.8377,-1.8375,-1.8358,-1.8353,-1.8351,-1.833,-1.8317,-1.8322,-1.8308,-1.829,-1.8285,-1.8276,-1.8274,-1.8286,-1.8282,-1.8284,-1.8286,-1.8319,-1.8325,-1.833,0,0,0,0,0,0,-1.8412,-1.8385,-1.8373,-1.8379,-1.8369,-1.8347,-1.8353,-1.8337,-1.833,-1.8327,-1.8303,-1.8299,-1.8305,-1.8296,-1.8286,-1.8301,-1.8281,-1.8283,-1.8306,-1.8312,-1.8316,-1.8319,-1.8256,0,0,0,0,0,-1.8421,-1.8419,-1.8396,-1.8404,-1.8399,-1.8377,-1.8374,-1.836,-1.8348,-1.8343,-1.8329,-1.8319,-1.8315,-1.8313,-1.8308,-1.832,-1.8315,-1.8327,-1.8332,-1.8336,-1.8338,-1.8344,-1.8349,-1.8294,-1.8294,-1.8294,0,0,-1.8439,-1.8424,-1.8425,-1.8411,-1.8401,-1.84,-1.8374,-1.8374,-1.8373,-1.8343,-1.8346,-1.8335,-1.8322,-1.833,-1.8333,-1.8322,-1.8352,-1.8338,-1.8342,-1.8341,-1.8346,-1.8352,-1.8356,-1.8296,-1.8296,-1.8295,0,0,-1.8472,-1.846,-1.8466,-1.8457,-1.8442,-1.8427,-1.8429,-1.8409,-1.8401,-1.8403,-1.8381,-1.8381,-1.8374,-1.8366,-1.8361,-1.8392,-1.8376,-1.8392,-1.8415,-1.8422,-1.8426,-1.8429,-1.8441,-1.8445,-1.8394,-1.8394,-1.8394,0,-1.8497,-1.8494,-1.8471,-1.8473,-1.8468,-1.8441,-1.8447,-1.8439,-1.8424,-1.8422,-1.841,-1.8402,-1.8392,-1.8397,-1.8405,-1.8402,-1.8403,-1.8393,-1.8427,-1.843,-1.8434,-1.8444,-1.8449,-1.8396,-1.8395,-1.8395,-1.8395,0,-1.8525,-1.8524,-1.853,-1.8516,-1.8512,-1.8516,-1.8494,-1.8493,-1.8479,-1.8466,-1.8469,-1.8455,-1.8448,-1.8448,-1.8434,-1.8452,-1.8446,-1.8431,-1.8411,-1.8441,-1.8451,-1.8455,-1.8399,-1.8398,-1.8397,-1.8397,0,0,-1.858,-1.8553,-1.8556,-1.855,-1.8532,-1.853,-1.8534,-1.8526,-1.8525,-1.8516,-1.8519,-1.8515,-1.8501,-1.8495,-1.848,-1.8486,-1.8512,-1.847,-1.847,-1.8479,-1.8532,-1.8543,-1.8548,-1.8501,-1.8502,-1.8502,-1.8533,0,-1.861,-1.8613,-1.8593,-1.8602,-1.86,-1.8575,-1.8578,-1.8568,-1.8556,-1.8554,-1.8541,-1.8539,-1.852,-1.8517,-1.8521,-1.8508,-1.8522,-1.8506,-1.8504,-1.8504,-1.8508,-1.8553,-1.8565,-1.8595,-1.8537,-1.8537,-1.8538,0,-1.8644,-1.8637,-1.8645,-1.8627,-1.8626,-1.8629,-1.8621,-1.8619,-1.8607,-1.8598,-1.8593,-1.8576,-1.8578,-1.8559,-1.8563,-1.8552,-1.855,-1.8544,-1.8545,-1.8543,-1.8523,-1.8554,-1.8603,-1.8608,-1.8543,-1.8543,-1.8542,0,-1.8684,-1.8676,-1.868,-1.8675,-1.8654,-1.8657,-1.8649,-1.8636,-1.8633,-1.8626,-1.8624,-1.8618,-1.8614,-1.861,-1.8592,-1.858,-1.8599,-1.8578,-1.8592,-1.8592,-1.8597,-1.8596,-1.8647,-1.8596,-1.8595,-1.8595,-1.8595,0,-1.8719,-1.8725,-1.8697,-1.87,-1.8707,-1.8684,-1.8692,-1.8681,-1.867,-1.8671,-1.8649,-1.865,-1.8627,-1.8626,-1.8612,-1.8617,-1.8616,-1.8609,-1.8606,-1.8611,-1.8612,-1.861,-1.8607,-1.8597,-1.8596,-1.8596,-1.8596,0,-1.8764,-1.8746,-1.8748,-1.8729,-1.8724,-1.873,-1.8713,-1.8715,-1.8702,-1.8704,-1.8703,-1.8682,-1.868,-1.8662,-1.8656,-1.8646,-1.8657,-1.865,-1.8661,-1.8659,-1.8674,-1.8673,-1.8724,-1.873,-1.8675,-1.8676,-1.8676,0,-1.8788,-1.8792,-1.8773,-1.8771,-1.8764,-1.8762,-1.8759,-1.8738,-1.8735,-1.8723,-1.8726,-1.8722,-1.8718,-1.8715,-1.8701,-1.8696,-1.8688,-1.8707,-1.8687,-1.8693,-1.8689,-1.8689,-1.8689,-1.8711,-1.8711,-1.8712,-1.8712,0,-1.8832,-1.8823,-1.8819,-1.8811,-1.8808,-1.8801,-1.8793,-1.8794,-1.877,-1.8769,-1.8766,-1.8763,-1.8756,-1.8753,-1.8745,-1.8738,-1.8722,-1.8719,-1.8722,-1.8727,-1.8734,-1.8731,-1.8673,-1.8717,-1.8717,-1.8717,-1.8716,-1.8716,-1.8868,-1.887,-1.8857,-1.8853,-1.8845,-1.8839,-1.884,-1.8827,-1.8824,-1.8816,-1.8804,-1.8804,-1.8793,-1.8781,-1.8775,-1.8774,-1.8765,-1.8769,-1.877,-1.8772,-1.8775,-1.8734,-1.8773,-1.8773,-1.8773,-1.8773,-1.8773,0,-1.8911,-1.8901,-1.8898,-1.8888,-1.8885,-1.8869,-1.886,-1.8859,-1.8858,-1.8849,-1.8845,-1.8843,-1.8839,-1.8824,-1.882,-1.8822,-1.8815,-1.8822,-1.8821,-1.882,-1.8784,-1.8781,-1.8828,-1.8828,-1.8828,-1.8828,-1.8828,-1.8828,-1.8933,-1.8937,-1.8927,-1.8927,-1.8917,-1.8916,-1.8912,-1.8906,-1.8899,-1.8896,-1.8893,-1.8883,-1.8872,-1.8867,-1.8863,-1.8859,-1.8858,-1.8868,-1.8861,-1.8828,-1.8822,-1.8817,-1.8815,-1.8868,-1.8868,-1.8898,-1.8898,-1.8898]},{"header":{"parameterUnit":"m.s-1","parameterCategory":1,"la1":30.2991,"la2":30.254,"lo1":-89.0895,"lo2":-89.0444,"dy":0.0017,"dx":0.0017,"nx":28,"ny":28,"refTime":"2025-05-19T21:00:00:Z","depth":0,"parameterNumber":3,"parameterNumberName":"V-component_of_WINDS"},"data":[0,0,0,0,0,0,0,0,0,0,0,0,0,0,0,0,0,0,0,0,0,0,0,0,0,0,0,0,0,0,0,0,0,0,0,0,0,0,0,0,0,0,0,0,0,0,0,0,0,0,0,0,0,0,0,0,0,0,3.6104,3.6105,0,3.6192,3.6193,3.6194,3.622,3.6219,3.6219,3.6218,3.6309,3.6312,3.6315,0,0,0,0,0,0,0,0,0,0,0,0,0,3.5956,3.5958,3.6103,3.6105,3.6106,3.6192,3.6193,3.6195,3.622,3.6219,3.6219,3.6218,3.6308,3.6311,3.6315,0,0,0,0,0,0,0,0,0,0,0,0,0,3.603,3.5959,3.6103,3.6129,3.6132,3.6192,3.6193,3.6195,3.622,3.6219,3.6218,3.6218,3.6307,3.6311,3.6315,3.6357,0,0,3.6329,3.633,0,0,0,0,0,0,0,0,3.6026,3.6035,3.6124,3.6127,3.6131,3.6194,3.6175,3.6249,3.622,3.6186,3.6218,3.6217,3.6271,3.6279,3.6297,3.6361,3.6365,3.6329,3.6331,3.6333,3.6335,0,0,0,0,0,0,0,3.602,3.6031,3.6139,3.6125,3.6129,3.6136,3.6145,3.6189,3.6232,3.6189,3.6191,3.6202,3.6273,3.6293,3.6299,3.6366,3.6329,3.6333,3.6335,3.6337,3.6469,3.647,0,0,0,0,0,0,3.6011,3.6027,3.6136,3.6141,3.6075,3.6139,3.615,3.6175,3.6232,3.624,3.6202,3.6202,3.6286,3.6294,3.6302,3.6355,3.6333,3.6337,3.634,3.6468,3.6469,3.647,0,0,0,0,0,0,3.6008,3.602,3.6132,3.6085,3.61,3.6142,3.617,3.6177,3.6196,3.6241,3.6249,3.6214,3.6285,3.6296,3.6343,3.6359,3.6339,3.6343,3.6467,3.6468,3.647,3.6461,0,0,0,0,0,0,3.6003,3.6019,3.6035,3.6085,3.6102,3.6171,3.6171,3.6179,3.6204,3.6205,3.6255,3.6262,3.6286,3.6337,3.6347,3.6364,3.6347,3.6466,3.6468,3.6469,3.646,3.6462,3.6463,0,0,0,0,0,3.5998,3.6029,3.6036,3.6049,3.6123,3.6172,3.6182,3.6209,3.6205,3.6222,3.625,3.6261,3.6355,3.6341,3.6354,3.6372,3.6465,3.6467,3.6469,3.6459,3.6461,3.6463,0,0,0,0,0,0,3.598,3.6036,3.6044,3.6092,3.6127,3.6176,3.6198,3.621,3.6247,3.6247,3.6278,3.6289,3.6334,3.6357,3.6341,3.6415,3.641,3.6415,3.6398,3.6401,3.6402,3.6396,3.635,0,0,0,0,0,3.5981,3.6017,3.6064,3.6101,3.6119,3.6155,3.6178,3.6195,3.6233,3.6248,3.628,3.6316,3.6354,3.6379,3.6416,3.6463,3.6475,3.6482,3.6483,3.6484,3.6489,3.6516,3.652,3.6477,3.6477,3.6477,0,0,3.5985,3.602,3.604,3.6099,3.6128,3.6164,3.6168,3.6206,3.6233,3.6254,3.63,3.6325,3.6367,3.6415,3.6437,3.6436,3.6503,3.6487,3.6488,3.6491,3.6519,3.6523,3.6526,3.6478,3.6478,3.6478,0,0,3.601,3.604,3.6075,3.6104,3.6149,3.6173,3.6181,3.6229,3.6246,3.6293,3.631,3.6342,3.6407,3.6437,3.646,3.6497,3.6508,3.6508,3.6517,3.6544,3.6547,3.655,3.6564,3.6569,3.6512,3.6512,3.6512,0,3.6009,3.6065,3.6092,3.6129,3.6155,3.6175,3.6211,3.6238,3.6292,3.6309,3.6307,3.6389,3.6419,3.6474,3.6483,3.6501,3.6512,3.6503,3.6544,3.6548,3.6551,3.6565,3.657,3.6511,3.6511,3.6511,3.6511,0,3.6062,3.61,3.6123,3.6175,3.6203,3.6239,3.6272,3.6297,3.6312,3.6336,3.6384,3.642,3.6466,3.648,3.6495,3.6537,3.6535,3.6538,3.6534,3.6555,3.6568,3.6574,3.6511,3.6511,3.6511,3.6511,0,0,3.6079,3.6146,3.6154,3.6178,3.6228,3.6258,3.6295,3.634,3.6361,3.6398,3.643,3.6484,3.6488,3.6514,3.6532,3.6555,3.6583,3.6556,3.6557,3.656,3.6634,3.6632,3.6638,3.659,3.6591,3.6592,3.663,0,3.6112,3.618,3.6205,3.6261,3.6297,3.6316,3.6349,3.6383,3.6407,3.6441,3.6467,3.6505,3.6506,3.6522,3.6546,3.6575,3.6598,3.6572,3.6622,3.6623,3.6612,3.6645,3.6643,3.6677,3.6636,3.6637,3.6637,0,3.616,3.6197,3.6256,3.6302,3.6318,3.6347,3.6391,3.6422,3.6462,3.6477,3.6507,3.6524,3.6564,3.6556,3.6612,3.6594,3.6616,3.6633,3.6635,3.6641,3.6632,3.6653,3.6689,3.6694,3.6646,3.6645,3.6644,0,3.6168,3.6233,3.6277,3.6297,3.6351,3.6372,3.6395,3.6434,3.6459,3.6497,3.6514,3.6555,3.6578,3.661,3.6637,3.6629,3.6691,3.6685,3.6706,3.6705,3.6719,3.6718,3.676,3.6731,3.6731,3.673,3.673,0,3.6203,3.6239,3.6282,3.6309,3.635,3.6378,3.6418,3.6443,3.6477,3.651,3.6528,3.6559,3.6592,3.6627,3.6649,3.6692,3.6702,3.6716,3.6722,3.6716,3.6714,3.6731,3.673,3.6732,3.6732,3.6731,3.6731,0,3.622,3.625,3.6299,3.6347,3.636,3.6388,3.6429,3.6456,3.648,3.6521,3.6533,3.6571,3.6612,3.6643,3.6696,3.6711,3.6758,3.6763,3.6745,3.6748,3.6767,3.6765,3.6823,3.6832,3.6795,3.6795,3.6795,0,3.6241,3.6269,3.6319,3.6343,3.6366,3.6403,3.6429,3.6458,3.6485,3.6532,3.6553,3.6596,3.6633,3.6698,3.6731,3.6772,3.6779,3.6796,3.6785,3.6778,3.6781,3.6779,3.6783,3.6798,3.6798,3.6798,3.6799,0,3.6275,3.6289,3.6326,3.6368,3.6398,3.6432,3.6467,3.6485,3.652,3.6548,3.6592,3.6619,3.6674,3.6717,3.6762,3.6786,3.6799,3.6801,3.6809,3.6803,3.6792,3.68,3.6751,3.68,3.68,3.68,3.68,3.68,3.6296,3.6322,3.6362,3.6403,3.6432,3.6463,3.6492,3.6519,3.6556,3.6603,3.6617,3.6662,3.6701,3.6762,3.6787,3.6823,3.6822,3.6832,3.6835,3.6837,3.6838,3.6785,3.683,3.683,3.683,3.683,3.683,0,3.6333,3.636,3.6396,3.6444,3.6476,3.6484,3.6523,3.6549,3.6588,3.6623,3.6658,3.6708,3.6749,3.6785,3.6828,3.685,3.6856,3.686,3.686,3.6865,3.6835,3.6825,3.6854,3.6854,3.6854,3.6854,3.6854,3.6854,3.6356,3.6401,3.6419,3.6479,3.6505,3.6549,3.6571,3.66,3.6629,3.6683,3.6718,3.674,3.6776,3.6822,3.686,3.6869,3.6885,3.6887,3.6898,3.687,3.6867,3.6865,3.6856,3.689,3.689,3.6926,3.6926,3.6926]}]]